McComb, MS

12:31 AM CDT on May 29, 2017 (GMT -0500)
McComb-Pike County-Lewis

Weather History for KMCB - October, 2013

Change the Weather History Date:

Sunday, October 13, 2013

  Actual Average Record
Temperature  
Mean Temperature 76 °F -  
Max Temperature 89 °F 80 °F 92 °F (1963)
Min Temperature 66 °F 53 °F 37 °F (1977)
Cooling Degree Days 12    
Growing Degree Days 26 (Base 50)    
Moisture  
Dew Point 67 °F    
Average Humidity 82    
Maximum Humidity 100    
Minimum Humidity 48    
Precipitation  
Precipitation 0.00 in - - ()
Sea Level Pressure  
Sea Level Pressure 30.12 in    
Wind  
Wind Speed 1 mph (North)    
Max Wind Speed 7 mph    
Max Gust Speed -    
Visibility 7 miles    
Events Fog    
Averages and records for this station are not official NWS values.
T = Trace of Precipitation, MM = Missing Value Source: NWS Daily Summary

Daily Weather History Graph

Daily Weather History Graph

Search for Another Location

Airport or City:

Trip Planner

Search our weather history database for the weather conditions in past years. The results will help you decide how hot, cold, wet, or windy it might be!

Date:

Astronomy

Oct. 13, 2013 Rise Set
Actual Time 7:03 AM CDT 6:32 PM CDT
Civil Twilight 6:39 AM CDT 6:56 PM CDT
Nautical Twilight 6:10 AM CDT 7:24 PM CDT
Astronomical Twilight 5:42 AM CDT 7:52 PM CDT
Moon 3:05 PM CDT (10/13) 1:34 AM CDT (10/13)
Length of Visible Light 12h 17m
Length of Day
11h 28m
Waxing Gibbous, 69% of the Moon is Illuminated
Oct 13
Waxing Gibbous
Oct 18
Full
Oct 26
Last Quarter
Nov 3
New
Nov 9
First Quarter

Hourly Weather History & Observations

Time (CDT) Temp. Heat Index Dew Point Humidity Pressure Visibility Wind Dir Wind Speed Gust Speed Precip Events Conditions
12:53 AM 72.0 °F - 69.1 °F 91% 30.06 in 10.0 mi Calm Calm - N/A   Clear
1:53 AM 72.0 °F - 69.1 °F 91% 30.07 in 10.0 mi Calm Calm - N/A   Partly Cloudy
2:53 AM 72.0 °F - 70.0 °F 93% 30.06 in 10.0 mi Calm Calm - N/A   Clear
3:53 AM 70.0 °F - 69.1 °F 97% 30.06 in 6.0 mi Calm Calm - N/A   Clear
4:53 AM 71.1 °F - 69.1 °F 93% 30.08 in 8.0 mi Calm Calm - N/A   Clear
5:53 AM 68.0 °F - 66.9 °F 96% 30.10 in 5.0 mi Calm Calm - N/A   Clear
6:53 AM 66.9 °F - 66.0 °F 97% 30.12 in 4.0 mi Calm Calm - N/A   Partly Cloudy
6:56 AM 66.2 °F - 66.2 °F 100% 30.13 in 1.5 mi Calm Calm - N/A   Scattered Clouds
6:58 AM 66.2 °F - 66.2 °F 100% 30.13 in 0.8 mi Calm Calm - N/A   Mist
7:14 AM 66.2 °F - 66.2 °F 100% 30.13 in 2.0 mi Calm Calm - N/A   Mostly Cloudy
7:21 AM 66.2 °F - 64.4 °F 94% 30.13 in 3.0 mi Calm Calm - N/A   Mostly Cloudy
7:42 AM 68.0 °F - 66.2 °F 94% 30.14 in 1.8 mi Calm Calm - N/A   Overcast
7:48 AM 68.0 °F - 66.2 °F 94% 30.14 in 0.2 mi NW 3.5 mph - N/A Fog Fog
7:53 AM 68.0 °F - 66.9 °F 96% 30.13 in 0.2 mi Calm Calm - N/A Fog Fog
7:59 AM 68.0 °F - 66.2 °F 94% 30.15 in 1.2 mi NNW 4.6 mph - N/A   Overcast
8:01 AM 68.0 °F - 66.2 °F 94% 30.15 in 3.0 mi North 4.6 mph - N/A   Overcast
8:53 AM 72.0 °F - 69.1 °F 91% 30.16 in 5.0 mi North 4.6 mph - N/A   Mostly Cloudy
9:38 AM 73.4 °F - 69.8 °F 88% 30.18 in 8.0 mi Calm Calm - N/A   Overcast
9:53 AM 75.9 °F - 70.0 °F 82% 30.18 in 10.0 mi Calm Calm - N/A   Scattered Clouds
10:53 AM 79.0 °F - 70.0 °F 74% 30.17 in 10.0 mi North 3.5 mph - N/A   Clear
11:53 AM 81.0 °F 84.1 °F 69.1 °F 67% 30.16 in 10.0 mi Calm Calm - N/A   Clear
12:53 PM 84.9 °F 88.2 °F 68.0 °F 57% 30.14 in 10.0 mi SSE 5.8 mph - N/A   Partly Cloudy
1:53 PM 84.9 °F 87.1 °F 66.0 °F 53% 30.11 in 10.0 mi NE 3.5 mph - N/A   Scattered Clouds
2:53 PM 86.0 °F 87.3 °F 64.0 °F 48% 30.08 in 10.0 mi Calm Calm - N/A   Mostly Cloudy
3:53 PM 87.1 °F 88.9 °F 64.9 °F 48% 30.08 in 10.0 mi Calm Calm - N/A   Partly Cloudy
4:53 PM 84.9 °F 87.6 °F 66.9 °F 55% 30.09 in 10.0 mi North 6.9 mph - N/A   Clear
5:53 PM 82.0 °F 84.5 °F 66.9 °F 60% 30.09 in 10.0 mi NNE 3.5 mph - N/A   Clear
6:53 PM 79.0 °F - 66.9 °F 66% 30.10 in 10.0 mi Calm Calm - N/A   Clear
7:53 PM 77.0 °F - 66.9 °F 71% 30.12 in 10.0 mi NNE 3.5 mph - N/A   Clear
8:53 PM 75.9 °F - 66.9 °F 74% 30.14 in 10.0 mi NNE 4.6 mph - N/A   Clear
9:53 PM 73.9 °F - 66.9 °F 79% 30.14 in 10.0 mi Calm Calm - N/A   Clear
10:53 PM 73.0 °F - 66.9 °F 81% 30.14 in 10.0 mi Calm Calm - N/A   Clear
11:53 PM 72.0 °F - 66.9 °F 84% 30.13 in 10.0 mi Calm Calm - N/A   Clear